Location: Bottenau
(48.5138°N, 8.0462°E)
Time: 17:14:05
(UTC+00:00)

Cosmos 1140 Rocket - Visible Passes

Search period start: 04 August 2021 00:00
Search period end: 14 August 2021 00:00
Orbit: 744 x 767 km, 74.1° (Epoch: 03 August)

Date Brightness Start Highest point End Pass type
(mag) Time Alt. Az. Time Alt. Az. Time Alt. Az.
04 Aug 3.4 00:36:12 57° S 00:37:14 78° ESE 00:42:29 10° NNE visible
04 Aug 5.3 02:16:12 11° W 02:19:39 20° NW 02:23:30 10° N visible
04 Aug 4.0 23:56:11 44° ESE 23:56:36 45° ESE 00:01:34 10° NE visible
05 Aug 4.7 01:36:11 22° W 01:38:33 31° NW 01:43:11 10° N visible
05 Aug 4.8 23:16:10 26° E 23:16:10 26° E 23:20:23 10° NE visible
06 Aug 4.0 00:56:10 39° WSW 00:57:36 50° WNW 01:02:42 10° NNE visible
06 Aug 5.9 02:39:16 10° NW 02:40:44 11° NW 02:42:12 10° NNW visible
06 Aug 5.5 22:36:07 15° E 22:36:07 15° E 22:38:35 10° ENE visible
07 Aug 3.4 00:16:07 69° SW 00:16:46 84° WNW 00:22:02 10° NNE visible
07 Aug 5.6 01:56:07 10° W 01:59:25 17° NW 02:02:46 10° N visible
07 Aug 3.6 23:36:03 57° ESE 23:36:05 57° ESE 23:41:13 10° NNE visible
08 Aug 5.1 01:16:02 19° W 01:18:15 25° NW 01:22:35 10° N visible
08 Aug 4.5 22:55:57 33° E 22:55:57 33° E 23:00:10 10° NE visible
09 Aug 4.4 00:35:57 34° W 00:37:14 40° WNW 00:42:09 10° N visible
09 Aug 5.2 22:15:51 19° E 22:15:51 19° E 22:18:43 10° NE visible
09 Aug 3.6 23:55:50 62° W 23:56:21 66° WNW 00:01:34 10° NNE visible
10 Aug 5.8 01:36:32 10° WNW 01:39:12 14° NW 01:41:53 10° NNW visible
10 Aug 5.8 21:35:42 10° E 21:35:42 10° E 21:35:48 10° E visible
10 Aug 3.4 23:15:42 73° E 23:15:42 73° E 23:20:49 10° NNE visible
11 Aug 5.4 00:55:41 16° W 00:57:58 21° NW 01:01:54 10° N visible
11 Aug 4.2 22:35:32 41° E 22:35:32 41° E 22:39:53 10° NE visible
12 Aug 4.7 00:15:31 28° W 00:16:53 32° NW 00:21:34 10° N visible
12 Aug 4.9 21:55:21 23° E 21:55:21 23° E 21:58:39 10° NE visible
12 Aug 3.9 23:35:20 50° W 23:35:56 52° WNW 23:41:03 10° NNE visible
13 Aug 6.0 01:17:17 10° WNW 01:19:01 11° NW 01:20:45 10° NNW visible
13 Aug 5.5 21:15:08 13° E 21:15:08 13° E 21:16:45 10° ENE visible
13 Aug 3.4 22:55:08 88° WNW 22:55:08 88° WNW 23:00:23 10° NNE visible
